Terug naar catalogus

THORAD AGENA D DEB

ActiefSSO
NORAD 4948·DEBRIS·🇺🇸 United States

Gelanceerd Apr 8, 1970 vanaf Vandenberg Space Force Base

Loading…

Volgende Passages

TLE

Source: Space-Track
1  4948U 70025GJ  26221.55433558  .00000576  00000-0  81452-3 0  9991
2  4948  99.3997  66.2567 0207402   7.3025  47.7121 13.52569046745624

Volg THORAD AGENA D DEB in realtime met AllMySat

Download on the App Store